Location: Am Papenberge
(52.5777°N, 9.5925°E)
Time: 08:07:37
(UTC+00:00)

Daily predictions for brighter satellites

Satellite Brightness Start Highest point End
(mag) Time Altitude Azimuth Time Altitude Azimuth Time Altitude Azimuth
COSMOS 2406 3.7 19:41:59 10° S 19:47:18 41° ESE 19:52:37 10° NE
CZ-4B R/B 4.4 19:44:23 10° SE 19:48:39 33° ENE 19:53:00 10° N
ISS -3.8 19:46:29 10° WSW 19:49:49 72° S 19:53:10 10° E
Cosmos 1892 Rocket 4.4 19:46:28 10° NNW 19:50:40 51° W 19:54:49 10° S
SKYMED 3 4.3 19:47:03 10° NNE 19:50:59 67° ESE 19:54:56 10° S
Cosmos 1461 3.5 19:47:56 10° S 19:51:06 27° ESE 19:54:16 10° ENE
Cosmos 1455 Rocket 3.4 19:47:05 10° SSW 19:51:28 73° WNW 19:55:52 10° N
Cosmos 1992 Rocket 4.1 19:46:32 10° S 19:51:34 54° ESE 19:56:39 10° NNE
Cosmos 1802 Rocket 4.2 19:46:20 10° SSW 19:52:30 79° WNW 19:58:41 10° N
Meteor 1-20 Rocket 4.5 19:47:17 10° N 19:52:48 58° ENE 19:58:24 10° SSE
Terra 2.3 19:48:53 10° S 19:53:31 60° W 19:58:12 10° NNW
Okean O Rocket 1.6 19:53:46 10° SSE 19:58:03 79° ENE 20:02:23 10° NNW
Cosmos 2333 Rocket 2.3 19:52:37 10° NNW 19:58:21 76° ENE 20:04:04 10° SE
NOSS 3-3 (A) 3.7 19:59:49 10° SSW 20:05:03 72° SE 20:11:24 10° NE
Cosmos 1544 Rocket 3.8 20:01:05 10° SSE 20:05:15 48° E 20:09:24 10° NNE
Cosmos 1437 Rocket 3.1 20:04:23 10° SSE 20:07:41 37° E 20:11:03 10° NNE
Cosmos 2360 Rocket 2.6 20:02:44 10° NNW 20:08:23 57° NE 20:13:57 10° SE
Helios 1A Rocket 3.1 20:05:24 10° N 20:08:30 53° WNW 20:11:34 10° SSW
EP 1 4.2 20:10:43 10° NW 20:13:19 85° SW 20:15:44 12° SE
CZ-4B R/B 4.1 20:08:29 10° S 20:13:57 50° W 20:19:23 10° NNW
Cosmos 2233 Rocket 4.1 20:09:53 10° SSW 20:16:05 81° WNW 20:22:16 10° N
Cosmos 1486 Rocket 4.1 20:13:38 10° NNW 20:18:54 69° ENE 20:23:55 11° SE
Okean-O 2.9 20:15:55 10° S 20:20:16 67° WSW 20:24:39 10° NNW
Cosmos 1758 Rocket 3.7 20:16:21 10° NNW 20:20:47 80° W 20:25:12 10° S
Cosmos 2219 Rocket 2.8 20:15:34 10° NNW 20:21:04 48° NE 20:26:24 11° SE
Cosmos 909 Rocket 4.0 20:16:02 10° SW 20:22:19 82° SE 20:28:58 10° NE
CZ-2C R/B 3.1 20:21:09 13° SE 20:23:11 28° ENE 20:25:39 10° N
DNEPR-1 R/B 4.4 20:23:34 10° NW 20:28:56 76° SW 20:34:57 13° SE
Nadezhda 4 Rocket 4.3 20:23:57 10° N 20:29:58 54° ENE 20:35:27 12° SSE
Meteor 1-25 Rocket 4.2 20:24:29 10° NNW 20:30:11 82° ENE 20:35:42 10° SSE
USA 245 4.3 20:25:57 10° SSE 20:31:50 89° ENE 20:37:17 10° NNW
IRS-1C Rocket 4.2 20:27:08 11° SSE 20:32:09 70° ENE 20:37:25 10° NNW
Cosmos 1825 Rocket 4.1 20:29:12 10° N 20:33:25 45° ENE 20:36:52 14° SE
Cosmos 1805 2.9 20:30:48 10° N 20:34:03 59° ENE 20:36:34 15° SSE
Cosmos 220 Rocket 3.9 20:33:38 10° S 20:37:36 55° ESE 20:41:38 10° NNE
NOSS 3-3 (C) 3.8 20:32:14 10° SW 20:37:36 89° NW 20:44:11 10° NE
Meteor 2-10 4.4 20:32:08 10° N 20:37:51 65° ENE 20:42:50 14° SSE
Cosmos 2322 Rocket 2.2 20:35:14 10° NNW 20:40:56 87° WSW 20:45:49 14° SSE
RESURS DK-1 4.2 20:38:36 10° NNW 20:41:43 21° NE 20:44:50 10° E
Cosmos 1602 Rocket 3.6 20:40:25 10° NNW 20:44:44 79° W 20:48:44 12° S
USA 306 1.9 20:43:21 10° W 20:46:08 54° N 20:47:38 13° ENE
Cosmos 2082 Rocket 3.3 20:41:51 10° SW 20:47:24 49° NW 20:52:57 10° NNE
NOSS 3-4 (A) 3.9 20:41:58 10° NW 20:48:31 70° SW 20:55:06 15° SSE
NOSS 3-4 (C) 3.9 20:42:35 10° NW 20:49:11 71° SW 20:55:45 15° SSE
Cosmos 1707 4.0 20:52:04 14° E 20:52:33 14° E 20:54:09 10° NE
CZ-4B R/B 2.9 20:49:58 14° S 20:52:50 59° WSW 20:56:19 10° NNW
Cosmos 2151 3.9 20:51:01 10° NNW 20:54:56 43° W 20:58:48 10° SSW
Cosmos 1076 Rocket 3.7 20:53:16 10° N 20:57:28 56° ENE 21:00:20 19° SSE
Cosmos 2098 Rocket 3.0 20:53:24 10° S 20:57:59 74° E 21:02:00 10° NNE
Cosmos 44 3.8 20:53:00 10° NW 20:58:25 67° NE 21:02:45 15° SE
Cosmos 2237 Rocket 4.1 20:54:21 10° NNW 20:58:50 23° NE 21:03:17 10° E
ATLAS 2AS CENTAUR R/B 4.4 20:53:33 10° WNW 20:59:42 34° N 21:05:48 10° NE
CZ-4C R/B 3.9 20:56:24 10° W 21:00:54 35° NNW 21:06:39 10° NE
Ariane Rocket 3.2 20:59:02 14° S 21:03:25 70° WSW 21:08:31 10° NNW
SL-16 R/B 3.4 21:06:48 10° NW 21:11:51 34° WSW 21:16:43 11° SSW
COSMOS 2428 3.5 21:07:30 10° NNW 21:12:57 43° NE 21:17:37 14° ESE
SPOT 3 Rocket 4.3 21:09:24 11° S 21:14:10 46° W 21:19:07 10° NNW
Cosmos 1470 4.3 21:12:19 10° NNE 21:14:40 18° ENE 21:16:07 14° E
Cosmos 1763 Rocket 3.7 21:10:53 13° S 21:15:23 55° ESE 21:20:32 10° NNE
USA 186 4.3 21:14:48 10° WSW 21:15:51 12° W 21:16:53 10° WNW
ARIANE 5 R/B 4.3 21:15:19 12° ESE 21:18:20 23° ENE 21:21:50 10° N
USA 290 2.0 21:18:07 17° SSW 21:20:22 80° ESE 21:23:31 10° NNE
ALOS 2 4.5 21:17:23 11° ESE 21:20:24 20° ENE 21:23:37 10° NNE
Cosmos 1898 Rocket 4.3 21:15:43 10° NNW 21:20:39 42° NE 21:24:24 17° ESE
Cosmos 1606 Rocket 3.5 21:17:15 15° S 21:20:52 87° WNW 21:25:12 10° N
Cosmos 990 Rocket 4.0 21:17:26 10° NNW 21:22:38 79° WSW 21:26:04 22° SSE
Cosmos 1464 Rocket 4.0 21:18:45 10° SSW 21:24:54 83° W 21:31:09 10° N
Helios 1B rocket 3.1 21:24:22 22° ESE 21:26:02 34° ENE 21:29:14 10° N
ISS -3.8 21:23:13 10° W 21:26:33 64° SSW 21:28:15 26° ESE
CZ-4B R/B 4.3 21:23:15 13° SSW 21:27:11 41° W 21:31:48 10° NNW
Cosmos 1461 3.7 21:23:40 10° WSW 21:27:14 45° NW 21:30:47 10° NE
Okean 1 3.0 21:25:54 20° SSW 21:28:16 83° W 21:31:53 10° N
Cosmos 1726 Rocket 3.3 21:25:49 20° S 21:28:32 83° ESE 21:32:37 10° NNE
BREEZE-M DEB (TANK) 1.8 21:26:25 10° WSW 21:28:12 33° SW 21:28:12 33° SW
COSMOS 2406 4.3 21:26:00 10° WSW 21:31:33 47° NW 21:37:06 10° NNE
Okean O Rocket 4.1 21:32:27 10° WSW 21:34:49 14° W 21:37:11 10° NW
Cosmos 1536 2.8 21:31:43 10° N 21:35:22 59° ENE 21:36:59 30° SE
Cosmos-2242 2.9 21:37:47 27° S 21:39:52 63° E 21:43:58 10° NNE
Cosmos 1092 Rocket 4.0 21:35:00 10° N 21:41:12 84° E 21:45:21 23° SSE
Cosmos 2333 Rocket 3.9 21:37:41 10° NW 21:42:05 23° WSW 21:46:28 10° SSW
NOSS 0 Rocket 4.4 21:36:04 10° NNW 21:42:10 56° NE 21:46:51 17° ESE
KORONAS-FOTON 4.0 21:43:53 34° SE 21:44:46 43° E 21:48:02 10° NNE
Cosmos 2297 Rocket 3.8 21:46:14 15° ESE 21:47:43 17° E 21:51:11 10° ENE
Cosmos 1833 4.1 21:44:31 10° SSW 21:50:11 87° ESE 21:55:51 10° NNE
Cosmos 2360 Rocket 3.4 21:47:07 10° NW 21:52:05 32° WSW 21:55:44 16° SSW
CZ-2C R/B 4.3 21:52:45 13° SW 21:54:00 16° W 21:55:50 10° NW
Cosmos 1766 3.0 21:52:31 10° NNW 21:55:42 59° W 21:56:45 36° SSW
Cosmos 2322 3.7 21:51:09 10° NNW 21:56:54 84° ENE 22:00:18 25° SE
Cosmos 1842 3.2 21:56:49 39° ESE 21:57:17 42° E 22:00:19 10° NNE
Cosmos 1975 3.3 21:54:25 10° N 21:57:57 42° ENE 21:59:14 30° ESE
Spot 4 4.3 21:57:15 24° SE 21:59:51 50° ENE 22:04:30 10° N
Meteor 2-6 Rocket 4.5 21:58:28 25° SSE 22:01:55 60° E 22:07:46 10° NNE
Cosmos 372 Rocket 3.9 21:57:39 10° NNW 22:02:47 79° WSW 22:05:24 29° SSE
Cosmos 2034 Rocket 4.3 21:58:36 14° SSW 22:04:08 67° WNW 22:10:28 10° N
Cosmos 2221 3.2 22:03:18 29° SE 22:04:37 36° E 22:08:29 10° NNE
Cosmos 2219 Rocket 3.1 21:59:43 10° NW 22:04:55 39° WSW 22:08:05 21° SSW
Cosmos 1271 Rocket 2.7 22:06:21 41° SE 22:07:00 48° E 22:10:17 10° NNE
SL-08 ROCKET BODY 4.4 22:03:48 10° N 22:10:00 84° E 22:13:38 27° SSE
Cosmos 540 Rocket 3.8 22:07:44 11° SW 22:12:38 64° WNW 22:17:46 10° NNE
USA 306 4.1 22:11:18 10° WNW 22:11:19 10° WNW 22:11:19 10° WNW
Helios 1A 2.9 22:12:16 10° NNE 22:16:12 73° WNW 22:18:07 29° SSW
RESURS DK-1 2.3 22:15:31 10° NW 22:19:29 68° WSW 22:20:45 40° S
Cosmos 2279 Rocket 4.0 22:16:39 26° S 22:20:20 74° E 22:26:36 10° NNE
Aureole 1 Rocket 4.4 22:15:09 10° NW 22:20:45 51° WSW 22:24:34 24° S
Cosmos 2322 Rocket 4.2 22:20:30 10° WNW 22:24:10 18° W 22:27:37 11° SW
Cosmos 1707 3.4 22:23:33 24° WSW 22:24:29 31° WNW 22:27:05 10° N
Cosmos 1634 Rocket 4.1 22:22:33 22° SSW 22:26:44 76° W 22:33:00 10° N
Cosmos 1937 Rocket 3.4 22:22:32 10° NNW 22:27:42 87° WSW 22:30:09 32° SSE
TSX-5 4.2 22:26:45 10° NW 22:29:38 33° WSW 22:29:55 32° SW
Geosat 4.0 22:26:52 10° NNE 22:31:54 81° NW 22:35:38 18° SW
SL-16 R/B 3.9 22:27:11 10° NNW 22:32:07 29° NE 22:37:02 10° E
CZ-2C R/B 3.6 22:27:57 10° NNE 22:32:25 71° ESE 22:34:15 35° S
Cosmos 2058 Rocket 3.8 22:30:59 21° SW 22:33:33 48° WNW 22:37:46 10° N
Cosmos 468 Rocket 4.1 22:30:13 19° SW 22:34:01 74° WNW 22:39:18 10° NNE
GP-B 3.7 22:30:26 10° NNE 22:34:38 43° E 22:36:11 30° SE
Meteor 2-9 Rocket 4.2 22:33:20 10° NNW 22:38:42 73° W 22:41:25 31° S
CZ-2C R/B 3.4 22:39:09 21° SE 22:42:20 44° ENE 22:47:15 10° N
Lacrosse 4 Rocket 2.9 22:42:44 20° ESE 22:42:44 20° ESE 22:45:42 10° ENE
Cosmos 2237 Rocket 2.3 22:38:06 10° NNW 22:43:50 77° ENE 22:47:09 26° SE
Cosmos 2266 Rocket 3.9 22:41:09 10° N 22:47:14 85° E 22:50:26 30° SSE
USA 234 3.8 22:41:19 10° ENE 22:47:16 36° SE 22:49:36 28° S
SeaSat 1 3.8 22:43:14 10° ESE 22:47:37 35° NE 22:52:03 10° NNW
Cosmos 1980 3.7 22:42:23 10° NNW 22:48:06 86° ENE 22:51:12 28° SSE
Cosmos 1470 3.3 22:45:39 10° NNW 22:48:44 36° W 22:49:19 33° WSW
CZ-4C R/B 4.3 22:45:41 10° NW 22:50:41 31° N 22:56:56 10° ENE
ATLAS 2AS CENTAUR R/B 4.1 22:45:56 10° NW 22:52:16 39° NNE 22:58:33 10° E
Intercosmos 24 4.0 22:48:36 10° N 22:52:29 58° ENE 22:53:30 40° SE
ARIANE 5 R/B 2.9 22:52:41 35° SSW 22:54:18 56° W 22:58:43 10° NNW
ALOS 2 2.7 22:54:46 38° S 22:56:20 64° WSW 23:00:42 10° NNW
COSMOS 2428 3.3 22:51:51 10° NW 22:57:14 44° WSW 22:59:34 29° SSW
Cosmos 2227 Rocket 3.5 22:55:49 21° SE 22:57:40 24° ESE 23:02:07 10° NE
Helios 1B rocket 3.7 22:58:18 20° WSW 22:59:05 22° W 23:01:53 10° NW
Meteor 2-4 Rocket 4.2 23:00:13 28° SSE 23:02:35 45° E 23:07:51 10° NNE
Cosmos 1898 Rocket 4.3 22:57:51 10° NW 23:02:35 37° WSW 23:04:34 27° SSW
ISS -1.6 23:00:13 10° W 23:01:11 16° WSW 23:01:11 16° WSW
BlueWalker 3 3.9 23:05:21 15° E 23:05:21 15° E 23:06:19 10° E
Cosmos 2263 Rocket 3.9 23:03:56 15° SE 23:05:50 18° E 23:09:31 10° ENE
CZ-2C R/B 3.6 23:01:01 10° NNE 23:06:43 57° E 23:09:26 31° SSE
Meteor 1-11 Rocket 3.8 23:01:57 10° NNW 23:07:35 66° W 23:10:10 32° S
Cosmos 1766 Rocket 3.6 23:04:16 10° N 23:08:34 69° ENE 23:10:08 38° SSE
SAR-Lupe-2 3.7 23:10:57 46° SW 23:11:20 49° WSW 23:14:35 10° NNW
Meteor 1-10 Rocket 4.4 23:11:29 29° SSW 23:14:41 81° WNW 23:20:40 10° NNE
Cosmos 1238 Rocket 3.1 23:14:04 41° SSE 23:15:15 58° E 23:19:38 10° NNE
PSLV R/B 3.6 23:11:15 10° NNE 23:15:34 79° WNW 23:17:16 37° SSW
Cosmos 1655 Rocket 4.0 23:14:27 10° N 23:20:45 78° E 23:24:14 28° SSE
Cosmos 192 4.3 23:16:59 10° NNW 23:21:57 83° ENE 23:24:20 31° SSE
Alouette 2 Rocket 3.5 23:22:42 10° NNW 23:26:29 87° ENE 23:28:18 36° SSE
Meteor 1-27 Rocket 3.7 23:25:49 31° S 23:28:44 89° ESE 23:34:30 10° NNE
Meteor 2-10 Rocket 3.8 23:23:33 10° N 23:29:05 73° ENE 23:32:13 28° SSE
Cosmos 841 Rocket 4.1 23:27:23 20° SW 23:30:51 52° WNW 23:36:00 10° NNE
Cosmos 2297 Rocket 2.1 23:27:59 30° SSW 23:30:53 83° ESE 23:36:35 10° NNE
SL-14 R/B 4.2 23:39:49 29° SE 23:40:54 35° E 23:44:24 10° NNE
CZ-4C R/B 3.9 23:37:58 10° NNE 23:41:09 35° E 23:41:47 32° SE
Cosmos 2221 4.0 23:39:35 18° WSW 23:41:43 27° WNW 23:45:21 10° N
Cosmos 158 Rocket 4.1 23:39:40 33° S 23:41:59 64° ESE 23:47:15 10° NNE
ACS3 Solar Sail 2.5 23:37:10 10° NNE 23:42:51 43° E 23:46:10 23° SSE
MetOp-A 4.3 23:42:38 33° SSW 23:44:22 47° W 23:48:51 10° NNW
Landsat 5 3.5 23:43:11 10° NNE 23:47:15 61° ESE 23:48:28 40° SSE
